Content
SEND FEEDBACK

Daily
Averages
Monthly
Summary
United States of America

NEW YORK - CENTRAL PARK, NEW YORK


Home > North America > United States > New York
Elevation: 14 feet     Latitude: 40 47N     Longitude: 073 58W

WEATHER
 
SELECT A DAY
Number of Records: 148,168;   Date Range: 11/1/95 - 8/12/14
 
SHARE

PRINT THIS DATA

[ ← Previous Day ]
WEATHER ALMANAC - FEBRUARY 24, 2013
[ Next Day → ]
[ °C ]   °F
Weather ElementAverageHighLow
Temperature38.7 °F46.9 °F (1:51 pm)34 °F (10:51 pm)
Dewpoint31.5 °F36 °F (9:51 am)19.9 °F (9:51 pm)
Humidity77 %93 % (1:51 am)51 % (3:51 pm)
Barometer29.81 in29.96 in (10:51 pm)29.74 in (1:51 pm)
Wind Speed6.2 mph13.8 mph (3:51 pm)
Wind Gust26.5 mph (7:51 pm)
Weather ElementAverage
Visibility8.6 mi
Wind DirectionE (92.1 °)

Weather ElementTotal
Precipitation0.03 in
Heating Degree Days24.6 (Base 65)
Averaged from 38 records on February 24, 2013
WEATHER CONDITIONS BREAKOUT
WIND DIRECTION BREAKOUT
WEATHER BY HOUR - FEBRUARY 24, 2013
[ °C ]   °F
Local TimeTemperatureDewpointHumidityBarometerVisibilityWind DirectionWind SpeedGust SpeedPrecipitationEventsConditions
1:51 AM37.0 °F35.1 °F93 %29.80 in3.0 miVariable3.5 mphOvercast
2:02 AM37.0 °F35.1 °F93 %29.82 in2.5 miCalmOvercast
2:14 AM37.0 °F35.1 °F93 %29.81 in3.0 miNorth (10°)6.9 mphOvercast
2:51 AM37.0 °F35.1 °F93 %29.78 in3.0 miVariable5.8 mphOvercast
3:23 AM37.0 °F35.1 °F93 %29.80 in2.5 miVariable4.6 mphOvercast
3:30 AM37.0 °F35.1 °F93 %29.81 in2.0 miVariable3.5 mph0.01 inOvercast
3:41 AM37.0 °F35.1 °F93 %29.81 in5.0 miVariable3.5 mph0.01 inOvercast
3:51 AM37.0 °F35.1 °F93 %29.79 in8.0 miVariable4.6 mph0.01 inOvercast
4:00 AM37.0 °F35.1 °F93 %29.81 in8.0 miVariable5.8 mphOvercast
4:49 AM37.4 °F35.6 °F93 %29.79 in10.0 miVariable4.6 mphOvercast
4:51 AM37.0 °F35.1 °F93 %29.76 in10.0 miNE (50°)5.8 mphOvercast
5:51 AM37.0 °F35.1 °F93 %29.76 in10.0 miNorthOvercast
6:06 AM37.0 °F35.1 °F93 %29.78 in10.0 miVariable5.8 mphOvercast
6:41 AM37.0 °F34.0 °F89 %29.79 in10.0 miVariable5.8 mphMostly Cloudy
6:51 AM37.0 °F34.0 °F89 %29.77 in10.0 miVariable5.8 mphOvercast
7:13 AM37.0 °F34.0 °F89 %29.79 in10.0 miWNW (300°)4.6 mphOvercast
7:41 AM37.0 °F34.0 °F89 %29.79 in10.0 miWNW (300°)4.6 mphMostly Cloudy
7:51 AM37.0 °F34.0 °F89 %29.77 in10.0 miVariable5.8 mphOvercast
8:14 AM37.9 °F35.1 °F89 %29.79 in10.0 miENE (60°)4.6 mphMostly Cloudy
8:51 AM39.0 °F34.0 °F82 %29.77 in10.0 miWNW (300°)5.8 mphOvercast
9:31 AM39.9 °F35.1 °F83 %29.80 in10.0 miVariable4.6 mphOvercast
9:51 AM41.0 °F36.0 °F82 %29.77 in10.0 miVariable3.5 mphOvercast
10:20 AM42.1 °F35.1 °F76 %29.79 in10.0 miVariable5.8 mphOvercast
10:51 AM43.0 °F36.0 °F76 %29.77 in10.0 miNW (320°)10.4 mphMostly Cloudy
11:51 AM45.0 °F35.1 °F68 %29.77 in10.0 miVariable3.5 mphOvercast
12:33 PM45.0 °F33.1 °F63 %29.77 in10.0 miNW (320°)10.4 mph16.1 mphOvercast
12:51 PM46.0 °F33.1 °F61 %29.75 in10.0 miVariable3.5 mphOvercast
1:51 PM46.9 °F30.0 °F52 %29.74 in10.0 miVariable4.6 mphOvercast
2:51 PM45.0 °F28.0 °F52 %29.75 in10.0 miWNW (300°)8.1 mph19.6 mphOvercast
3:51 PM43.0 °F26.1 °F51 %29.77 in10.0 miNW (310°)13.8 mph25.3 mphOvercast
4:51 PM41.0 °F26.1 °F55 %29.81 in10.0 miVariable6.9 mph23.0 mphOvercast
5:51 PM37.9 °F23.0 °F55 %29.85 in10.0 miNorthOvercast
6:51 PM37.0 °F21.0 °F52 %29.88 in10.0 miNW (310°)10.4 mph24.2 mphOvercast
7:51 PM37.0 °F21.0 °F52 %29.91 in10.0 miNW (310°)11.5 mph26.5 mphOvercast
8:51 PM35.1 °F21.0 °F57 %29.94 in10.0 miVariable6.9 mph20.7 mphPartly Cloudy
9:51 PM35.1 °F19.9 °F54 %29.95 in10.0 miNW (310°)11.5 mph20.7 mphClear
10:51 PM34.0 °F19.9 °F56 %29.96 in10.0 miWNW (300°)10.4 mph20.7 mphClear
11:51 PM34.0 °F19.9 °F56 %29.96 in10.0 miVariable6.9 mphClear
Hourly data recorded from KNYC, located miles away from New York - Central Park, New York







STORIES FROM OUR PARTNERS